{"data":{"norad_id":66735,"intl_designator":"2025-276BX","name":"FLOCK 4H-32","alt_names":[],"object_type":"PAYLOAD","status":"ACTIVE","operator":null,"country":"US","launch_date":"2025-11-28","launch_site_code":"AFWTR","launch_vehicle":null,"mission":null,"orbit_class":"UNKNOWN","rcs_meters":null,"size_class":null,"mass_kg":null,"dimensions":null,"purposes":["earth_obs"],"wikipedia_slug":null,"has_3d_model":false,"image_url":null,"decayed_at":null,"tle_current":{"epoch":"2026-09-20T00:10:33.500352Z","epoch_age_seconds":60645,"freshness":"FRESH","line1":"1 66735U 25276BX  26263.00733218  .00004523  00000+0  20853-3 0  9996","line2":"2 66735  97.4144 335.0281 0005564  51.3941 308.7792 15.20752617 44823","mean_motion":15.20752617,"eccentricity":0.0005564,"inclination_deg":97.4144,"raan_deg":335.0281,"arg_perigee_deg":51.3941,"mean_anomaly_deg":308.7792,"bstar":0.00020853,"rev_number":4482,"period_min":94.689957058282,"perigee_km":499.74020183315,"apogee_km":507.39816447376,"semimajor_km":6881.7061831535,"source":"CELESTRAK","updated_at":"2026-09-20T09:00:34.753652Z"}}}